Regional Weather Roundup
Issued by NWS Wakefield, VA

Home | Current Version | Previous Version | Text Only | Print | Product List | Glossary Off
Versions: 1 2 3 4 5 6 7 8 9 10 11 12 13 14 15 16 17 18 19 20 21 22 23 24 25 26 27 28 29 30 31 32 33 34 35 36 37 38 39 40 41 42 43 44 45 46 47 48 49 50

000
ASUS41 KAKQ 180615
RWRAKQ

REGIONAL WEATHER ROUNDUP
NATIONAL WEATHER SERVICE WAKEFIELD VA
200 AM EDT FRI AUG 18 2017

Note: "fair" indicates few or no clouds below 12,000 feet with no
significant weather and/or obstructions to visibility. * = Denotes
station may not report precipitation (e.g., rain,snow,etc.),
thunder or fog.

VAZ042-051-052>054-056-180700-
NORTHERN VIRGINIA

CITY           SKY/WX    TMP DP  RH WIND       PRES   REMARKS
WASH NATIONAL  CLOUDY    80  76  87 S10       29.89F
DULLES         MOCLDY    77  75  93 S8        29.89F
FORT BELVOIR   PTCLDY    76  74  91 CALM      29.89F
QUANTICO       CLOUDY    80  77  90 SW7       29.89F
FREDERICKSBRG* PTCLDY    77  77 100 S6        29.89F
STAFFORD*      PTCLDY    76  76 100 CALM      29.94S
WARRENTON      CLOUDY    77  73  86 S3        29.89F
CULPEPER*      CLEAR     77  76  97 CALM      29.91F
MANASSAS*      PTCLDY    77  74  90 S3        29.89F
LEESBURG*      MOCLDY    77  77 100 SW3       29.90F
WINCHESTER     MOCLDY    72  70  94 CALM      29.89F
FRONT ROYAL*   PTCLDY    75  73  94 S3        29.89F
LURAY*         CLEAR     75  73  94 S3        29.91F
$$

VAZ048-049-060>072-079>083-180700-
CENTRAL AND SOUTH CENTRAL VIRGINIA

CITY           SKY/WX    TMP DP  RH WIND       PRES   REMARKS
RICHMOND       PTCLDY    76  75  97 S6        29.92F
CHESTERFIELD*  FAIR      76  74  93 S6        29.93F
PETERSBURG*    CLOUDY    74  74 100 S3        29.94F FOG
HANOVER        CLEAR     77  72  84 S6        29.92F
TAPPAHANNOCK*  CLEAR     77  77 100 S6        29.92F
QUINTON*       FAIR      75  75 100 S5        29.92F
CHARLOTTSVILLE CLEAR     77  75  93 SW3       29.91F
GORDONSVILLE*  CLEAR     75  75 100 SW3       29.90F
ORANGE*        PTCLDY    73  73 100 CALM      29.90F
LOUISA*        CLEAR     75  73  94 S5        29.91F
BUMPASS*       FAIR      75  75 100 CALM      29.91F
FARMVILLE*     CLEAR     76  75  95 S7        29.91F
CREWE*         FAIR      75  71  87 CALM      29.92F
FORT PICKETT*  FAIR     N/A N/A N/A S13       29.94S
CHASE CITY*    MOCLDY    76  75  99 S3        29.95F
CLARKSVILLE*   FAIR      75  75 100 S6        29.94F
SOUTH HILL*    CLEAR     73  73 100 S7        30.00F
LAWRENCEVILLE* FAIR      74  73  97 CALM      29.95S
EMPORIA*       MOCLDY    73  73 100 CALM      29.96S
$$

VAZ088>098-180700-
SOUTHEAST VIRGINIA

CITY           SKY/WX    TMP DP  RH WIND       PRES   REMARKS
NORFOLK        PTCLDY    78  74  87 S9        29.95S
VIRGINIA BEACH PTCLDY    78  72  81 S6        29.94F
NORFOLK NAVAL  PTCLDY    80  73  79 S8        29.95F
WEST POINT*    CLEAR     78  74  90 S6        29.93F
SALUDA*        FAIR      77  76  98 S6        29.93S
NEWPORT NEWS   MOCLDY    78  74  87 S8        29.93F
LANGLEY AFB    NOT AVBL
FORT EUSTIS    NOT AVBL
WILLIAMSBURG*  PTCLDY    79  75  89 S6        29.95F
HR EXEC AP*    FAIR      73  72  94 S3        29.93S
FRANKLIN*      PTCLDY    76  74  95 S5        29.95F
US460-WAKEFLD  MOCLDY    76  76 100 VRB3      29.94F
$$

VAZ020-022-025-037-045-180700-
WEST CENTRAL AND SOUTHWEST VIRGINIA

CITY           SKY/WX    TMP DP  RH WIND       PRES   REMARKS
STAUNTON*      CLEAR     71  71  98 CALM      29.96F
WAYNESBORO*    PTCLDY    73  73  97 CALM      29.96S
HOT SPRINGS VA CLEAR     70  64  83 SW12      30.09F
LYNCHBURG      CLEAR     75  73  93 SW3       29.95F
DANVILLE       CLEAR     76  75  97 S3        29.94F
SOUTH BOSTON*  FAIR      74  73  95 S5        29.94F
MARTINSVILLE   PTCLDY    74  73  97 CALM      29.98F
ROANOKE        MOCLDY    75  74  96 CALM      29.98F
BLACKSBURG     CLEAR     72  72  99 CALM      30.05F
DUBLIN*        CLEAR     73  72  96 SW3       30.03F
MARION*        PTCLDY    70  58  64 W3        30.08F
HILLSVILLE*    MOCLDY    72  67  85 CALM      30.05F
RICHLANDS*     FAIR      72  66  81 SW5       30.05F
WISE*          CLEAR     72  72 100 SW9       30.05F
ABINGDON*      CLEAR     71  71  99 CALM      30.03F
$$

MDZ021>025-VAZ099-100-180700-
SOUTHERN MARYLAND AND THE DELMARVA PENINSULA

CITY           SKY/WX    TMP DP  RH WIND       PRES   REMARKS
PATUXENT RIVER CLOUDY    78  75  90 S8        29.89F
BAY BRIDGE APT PTCLDY    77  73  88 S7        29.90F
LEONARDTOWN    CLOUDY    77  72  83 S5        29.92F
DOVER          CLEAR     73  66  78 S7        29.91F
GEORGETOWN     CLEAR     74  70  87 S9        29.93F
EASTON         PTCLDY    76  72  86 S6        29.95F
CAMBRIDGE      CLEAR     75  73  94 SE7       29.91F
SALISBURY      CLEAR     74  74 100 S7        29.93F
OCEAN CITY     PTCLDY    76  75  97 S7        29.95F
WALLOPS ISLAND CLEAR     77  76  96 S10       29.95F
ACCOMACK*      CLEAR     78  76  94 S7        29.94S
$$

NCZ012>017-030>032-180700-
NORTH CENTRAL AND EASTERN NORTH CAROLINA

CITY           SKY/WX    TMP DP  RH WIND       PRES   REMARKS
ROANOKE RAPIDS MOCLDY    73  73 100 SW3       29.95F
RALEIGH        PTCLDY    77  74  90 S5        29.96F
ELIZABETH CITY PTCLDY    79  76  90 S7        29.95F
AHOSKIE*         N/A     74  74  99 CALM      29.96S FOG
EDENTON*       PTCLDY    81  78  89 CALM      29.96F
CURRITUCK*     PTCLDY    78  74  86 CALM      29.96F
KILL DEVIL HLS PTCLDY    80  73  79 CALM      29.96F
MANTEO         PTCLDY    82  75  80 SW13      29.97F
CAPE HATTERAS  CLEAR     83  77  82 S12       29.99F
TARBORO*       NOT AVBL
GOLDSBORO      PTCLDY    76  76 100 S3        29.95F FOG
WASHINGTON     PTCLDY    79  78  95 S5        29.96F
GREENVILLE     NOT AVBL
NEW BERN       PTCLDY    79  78  97 SE5       29.97F
WILMINGTON     PTCLDY    81  80  97 S5        29.96F FOG
$$

VAZ048-180700-
ELSEWHERE

CITY           SKY/WX    TMP DP  RH WIND       PRES   REMARKS
HARRISBURG PA  CLOUDY    78  73  84 SE6       29.88S
BALTIMORE      CLOUDY    76  73  91 S3        29.89F
ANNAPOLIS      PTCLDY    79  77  94 S8        29.88F
ANDREWS AFB    CLOUDY    74  71  90 S6        29.89F
PHILADELPHIA   MOCLDY    76  70  82 SW7       29.92F
HENDERSON NC   PTCLDY    72  70  95 S6        29.96F
GREENSBORO     CLEAR     77  76  96 S5        29.95F
ROCKY MOUNT    CLEAR     75  75 100 S3        29.95F
$$

VAZ100-180700-
MARINE

STATION/POSITION TIME  TEMP    WIND        PRES    WAVE   SWELL
                       AIR SEA DIR/SP/G            HT/PER HT/PER
                 (UTC) (F)     (DEG/KT/KT) (MB)    (FT/S) (FT/S)
BRANDYWINE LGT   0542          180/ 18/ 19 1013.7F
CAPE MAY NJ      0548      77  170/  6/  9 1013.2F
LEWES DE         0548      76  180/  6/  9 1013.2F
15NM E FENWICK I 0550   78 77  170/ 16/ 17 1014.3F   2/ 4   2/ 7
OCEAN-CITY-INLET 0548      78  190/ 10/ 13 1014.4F
WACHAPREAGUE VA  0542      83  200/ 11/ 13 1013.9F
THOMAS POINT MD  0600   80 80  180/ 18/ 20   N/A
GOOSES REEF MD   0600   80 79  170/ 14/ 16 1012.8    2/ 3
COVE POINT MD    0542          190/ 13/ 16 1013.2F
SOLOMONS ISLAND  0542      81  180/ 11/ 13   N/A
BISHOPS HEAD MD  0548      81  170/ 13/ 15 1013.1F
PINEY POINT MD   0542          200/  9/ 12   N/A
POTOMAC MD       0600   79 80  190/ 12/ 16 1012.0    2/ 3
CAMBRIDGE MD     0548      81              1013.6F
LEWISETTA VA     0542      83  210/ 11/ 13 1012.6F
RAPPAHANNOCK LGT 0542          170/ 15/ 17 1014.2F
STINGRAY PT      0600   80 81  220/ 10/ 12 1013.7    2/ 3
YORK RVR RNG VA  0542          210/ 10/ 12 1014.1F
YORKTOWN VA      0542      81  210/  6/  8 1013.4F
JAMESTOWN VA     0600      83  180/  6/  8   N/A
DOMINION TERM VA 0542          200/  8/ 10 1014.1F
KIPTOPEKE VA     0542      79  180/  9/ 11   N/A
CHES BAY BRIDGE  0542      80  210/ 10/ 12 1013.9F
CAPE HENRY VA    0542          180/  6/  9   N/A
WILLOUBY STN VA  0542          180/ 12/ 13 1013.9F
S CRANEY ISL VA  0542          190/  8/ 11 1013.9F
CAPE HENRY BUOY  0600      79                N/A     3/ 4
1ST LANDING BUOY 0600   80 79              1013.8    1/ 3
64NM E OF VA BCH 0550   79 79  190/ 10/ 12 1015.2F   2/ 7   2/ 7
DUCK PIER NC     0542      74  190/ 15/ 20 1014.0F
44100 DUCK FRF   0505      80                N/A     2/ 6
44056 DUCK FRF   0600      79                N/A     2/ 8
OREGON INLET NC  0542      83  170/ 12/ 16 1014.8F
HATTERAS NC      0542      84  170/  7/ 11 1015.5F
DIAMOND SHLS NC  0550   84 86  170/ 14/ 16 1015.4F   2/ 7   2/ 7
CAPE LOOKOUT NC  0600   82     160/ 10/ 11 1014.7F
$$



USA.gov is the U.S. government's official web portal to all federal, state and local government web resources and services.